Location: Newark
(58.8333°N, 23.5833°E)
Time: 13:50:55
(UTC+00:00)

S-56A Canister/Altair - Pass Details

Date: 27 November 2019
Orbit: 632 x 2500 km, 38.9° (Epoch: 14 December)

Event Time Altitude Azimuth Distance (km) Brightness Sun altitude
Rises 15:08:53 0° 244° (WSW) 5,652 14.3 -10.1°
Reaches altitude 10° 15:13:58 10° 232° (SW) 4,340 12.8 -10.7°
Maximum altitude 15:21:40 22° 189° (S) 2,934 10.9 -11.6°
Drops below altitude 10° 15:27:39 10° 143° (SE) 3,259 10.6 -12.3°
Sets 15:30:48 0° 128° (SE) 3,947 10.9 -12.7°
